Pipestone, MN

9:24 AM CDT on August 25, 2019 (GMT -0500)
Pipestone Municipal

Weather History for KPQN - July, 2019

Change the Weather History Date:

Sunday, July 21, 2019

  Actual Average Record
Temperature  
Mean Temperature 69 °F -  
Max Temperature 78 °F 80 °F 91 °F (2002)
Min Temperature 60 °F 60 °F 48 °F (2000)
Cooling Degree Days 4    
Growing Degree Days 19 (Base 50)    
Moisture  
Dew Point 60 °F    
Average Humidity 75    
Maximum Humidity 94    
Minimum Humidity 47    
Precipitation  
Precipitation 0.00 in - - ()
Sea Level Pressure  
Sea Level Pressure 30.12 in    
Wind  
Wind Speed 3 mph (North)    
Max Wind Speed 12 mph    
Max Gust Speed 16 mph    
Visibility 10 miles    
Events Rain    
Averages and records for this station are not official NWS values.
T = Trace of Precipitation, MM = Missing Value Source: NWS Daily Summary

Daily Weather History Graph

Daily Weather History Graph

Search for Another Location

Airport or City:

Astronomy

Jul. 21, 2019 Rise Set
Actual Time 6:01 AM CDT 9:00 PM CDT
Civil Twilight 5:27 AM CDT 9:35 PM CDT
Nautical Twilight 4:43 AM CDT 10:18 PM CDT
Astronomical Twilight 3:51 AM CDT 11:10 PM CDT
Moon 11:47 PM CDT (7/21) 10:30 AM CDT (7/21)
Length of Visible Light 16h 07m
Length of Day
14h 59m
Waning Gibbous, 80% of the Moon is Illuminated
Jul 21
Waning Gibbous
Jul 24
Last Quarter
Jul 31
New
Aug 7
First Quarter
Aug 15
Full

Hourly Weather History & Observations

Time (CDT) Temp. Dew Point Humidity Pressure Visibility Wind Dir Wind Speed Gust Speed Precip Events Conditions
12:16 AM 64.4 °F 62.6 °F 94% 30.03 in 10.0 mi Calm Calm - N/A   Clear
12:35 AM 64.4 °F 60.8 °F 88% 30.04 in 10.0 mi Calm Calm - N/A   Clear
12:36 AM 64.4 °F 60.8 °F 88% 30.04 in 10.0 mi Calm Calm - N/A   Clear
12:55 AM 64.4 °F 60.8 °F 88% 30.04 in 10.0 mi NW 3.5 mph - N/A   Clear
12:56 AM 64.4 °F 60.8 °F 88% 30.04 in 10.0 mi NW 3.5 mph - N/A   Clear
1:15 AM 64.4 °F 60.8 °F 88% 30.03 in 10.0 mi NW 4.6 mph - N/A   Clear
1:20 AM 64.4 °F 60.8 °F 88% 30.03 in 10.0 mi NW 4.6 mph - N/A   Clear
1:38 AM 64.4 °F 60.8 °F 88% 30.03 in 10.0 mi Calm Calm - N/A   Clear
1:55 AM 62.6 °F 60.8 °F 94% 30.03 in 10.0 mi Calm Calm - N/A   Clear
2:15 AM 62.6 °F 60.8 °F 94% 30.03 in 10.0 mi NW 3.5 mph - N/A   Clear
2:35 AM 62.6 °F 59.0 °F 88% 30.03 in 10.0 mi NW 3.5 mph - N/A   Clear
2:36 AM 62.6 °F 59.0 °F 88% 30.03 in 10.0 mi NW 3.5 mph - N/A   Clear
2:58 AM 62.6 °F 59.0 °F 88% 30.03 in 10.0 mi NE 6.9 mph - N/A   Clear
3:17 AM 62.6 °F 60.8 °F 94% 30.04 in 10.0 mi North 4.6 mph - N/A   Clear
3:36 AM 62.6 °F 59.0 °F 88% 30.04 in 10.0 mi Calm Calm - N/A   Clear
3:55 AM 62.6 °F 59.0 °F 88% 30.05 in 10.0 mi Calm Calm - N/A   Clear
3:56 AM 62.6 °F 59.0 °F 88% 30.05 in 10.0 mi Calm Calm - N/A   Clear
4:15 AM 62.6 °F 59.0 °F 88% 30.05 in 10.0 mi Calm Calm - N/A   Clear
4:19 AM 62.6 °F 59.0 °F 88% 30.05 in 10.0 mi NNE 3.5 mph - N/A   Clear
4:37 AM 62.6 °F 59.0 °F 88% 30.04 in 10.0 mi NNE 5.8 mph - N/A   Clear
4:56 AM 62.6 °F 59.0 °F 88% 30.04 in 10.0 mi NNE 5.8 mph - N/A   Clear
5:15 AM 62.6 °F 59.0 °F 88% 30.04 in 10.0 mi NNE 5.8 mph - N/A   Clear
5:16 AM 62.6 °F 59.0 °F 88% 30.04 in 10.0 mi NE 6.9 mph - N/A   Clear
5:35 AM 60.8 °F 57.2 °F 88% 30.04 in 10.0 mi North 4.6 mph - N/A   Clear
5:36 AM 60.8 °F 57.2 °F 88% 30.03 in 10.0 mi NNE 5.8 mph - N/A   Clear
5:58 AM 60.8 °F 57.2 °F 88% 30.06 in 10.0 mi Calm Calm - N/A   Clear
6:16 AM 60.8 °F 57.2 °F 88% 30.08 in 10.0 mi Calm Calm - N/A   Clear
6:35 AM 62.6 °F 57.2 °F 82% 30.10 in 10.0 mi Calm Calm - N/A   Clear
6:36 AM 62.6 °F 57.2 °F 82% 30.10 in 10.0 mi Calm Calm - N/A   Clear
6:55 AM 62.6 °F 57.2 °F 82% 30.10 in 10.0 mi Calm Calm - N/A   Clear
6:56 AM 62.6 °F 57.2 °F 82% 30.10 in 10.0 mi Calm Calm - N/A   Clear
7:15 AM 62.6 °F 57.2 °F 82% 30.11 in 10.0 mi Calm Calm - N/A   Clear
7:20 AM 62.6 °F 59.0 °F 88% 30.12 in 10.0 mi Calm Calm - N/A   Clear
7:37 AM 62.6 °F 59.0 °F 88% 30.11 in 10.0 mi Calm Calm - N/A   Clear
7:55 AM 62.6 °F 59.0 °F 88% 30.10 in 10.0 mi Calm Calm - N/A   Scattered Clouds
8:15 AM 64.4 °F 60.8 °F 88% 30.10 in 10.0 mi Calm Calm - N/A   Clear
8:35 AM 64.4 °F 60.8 °F 88% 30.10 in 10.0 mi Calm Calm - N/A   Clear
8:36 AM 64.4 °F 60.8 °F 88% 30.10 in 10.0 mi Calm Calm - N/A   Clear
8:59 AM 66.2 °F 60.8 °F 83% 30.10 in 10.0 mi NNW 4.6 mph - N/A   Clear
9:16 AM 68.0 °F 62.6 °F 83% 30.11 in 10.0 mi Calm Calm - N/A   Scattered Clouds
9:36 AM 69.8 °F 60.8 °F 73% 30.12 in 10.0 mi NNE 5.8 mph - N/A   Clear
9:55 AM 71.6 °F 62.6 °F 73% 30.12 in 10.0 mi NE 6.9 mph - N/A   Clear
9:56 AM 71.6 °F 62.6 °F 73% 30.12 in 10.0 mi NE 3.5 mph - N/A   Clear
10:15 AM 71.6 °F 60.8 °F 69% 30.13 in 10.0 mi NE 8.1 mph - N/A   Clear
10:19 AM 71.6 °F 60.8 °F 69% 30.13 in 10.0 mi NE 6.9 mph - N/A   Clear
10:38 AM 73.4 °F 60.8 °F 65% 30.14 in 10.0 mi NE 4.6 mph - N/A   Clear
10:55 AM 73.4 °F 59.0 °F 61% 30.14 in 10.0 mi NE 8.1 mph - N/A   Clear
11:15 AM 75.2 °F 60.8 °F 61% 30.14 in 10.0 mi NE 5.8 mph - N/A   Clear
11:16 AM 75.2 °F 60.8 °F 61% 30.14 in 10.0 mi NNE 5.8 mph - N/A   Clear
11:35 AM 75.2 °F 60.8 °F 61% 30.14 in 10.0 mi NNE 4.6 mph - N/A   Clear
11:36 AM 75.2 °F 60.8 °F 61% 30.14 in 10.0 mi NNE 5.8 mph - N/A   Clear
11:58 AM 75.2 °F 60.8 °F 61% 30.14 in 10.0 mi NNE 5.8 mph - N/A   Clear
12:16 PM 75.2 °F 60.8 °F 61% 30.13 in 10.0 mi ENE 5.8 mph - N/A   Clear
12:36 PM 75.2 °F 60.8 °F 61% 30.13 in 10.0 mi NE 5.8 mph - N/A   Clear
12:55 PM 75.2 °F 62.6 °F 65% 30.13 in 10.0 mi North 4.6 mph - N/A   Clear
1:15 PM 77.0 °F 57.2 °F 50% 30.13 in 10.0 mi NE 8.1 mph - N/A   Clear
1:19 PM 77.0 °F 57.2 °F 50% 30.13 in 10.0 mi North 5.8 mph - N/A   Clear
1:37 PM 77.0 °F 59.0 °F 54% 30.13 in 10.0 mi NNE 6.9 mph - N/A   Clear
1:56 PM 78.8 °F 60.8 °F 54% 30.12 in 10.0 mi NNE 6.9 mph - N/A   Clear
2:15 PM 78.8 °F 57.2 °F 47% 30.13 in 10.0 mi NNE 10.4 mph 16.1 mph N/A   Clear
2:16 PM 78.8 °F 57.2 °F 47% 30.13 in 10.0 mi NNE 8.1 mph 16.1 mph N/A   Clear
2:35 PM 77.0 °F 60.8 °F 57% 30.12 in 10.0 mi NNE 9.2 mph - N/A   Scattered Clouds
2:36 PM 77.0 °F 60.8 °F 57% 30.13 in 10.0 mi NE 10.4 mph - N/A   Scattered Clouds
2:58 PM 78.8 °F 60.8 °F 54% 30.13 in 10.0 mi NE 11.5 mph - N/A   Clear
3:16 PM 77.0 °F 60.8 °F 57% 30.13 in 10.0 mi NNE 9.2 mph - N/A   Scattered Clouds
3:36 PM 75.2 °F 62.6 °F 65% 30.14 in 10.0 mi NNE 9.2 mph - N/A   Scattered Clouds
3:55 PM 75.2 °F 60.8 °F 61% 30.15 in 10.0 mi NNE 9.2 mph - N/A   Clear
3:56 PM 75.2 °F 60.8 °F 61% 30.15 in 10.0 mi NNE 9.2 mph - N/A   Clear
4:15 PM 75.2 °F 60.8 °F 61% 30.15 in 10.0 mi NNE 6.9 mph - N/A   Clear
4:19 PM 75.2 °F 60.8 °F 61% 30.15 in 10.0 mi NNE 8.1 mph - N/A   Clear
4:37 PM 75.2 °F 59.0 °F 57% 30.16 in 10.0 mi North 5.8 mph - N/A   Clear
4:55 PM 75.2 °F 60.8 °F 61% 30.16 in 10.0 mi North 8.1 mph - N/A   Clear
5:15 PM 75.2 °F 60.8 °F 61% 30.17 in 10.0 mi North 5.8 mph - N/A   Scattered Clouds
5:35 PM 73.4 °F 59.0 °F 61% 30.17 in 10.0 mi North 5.8 mph - N/A   Clear
5:36 PM 73.4 °F 59.0 °F 61% 30.17 in 10.0 mi North 5.8 mph - N/A   Clear
5:59 PM 73.4 °F 59.0 °F 61% 30.18 in 10.0 mi North 8.1 mph - N/A Rain Light Rain
6:17 PM 73.4 °F 59.0 °F 61% 30.18 in 10.0 mi North 8.1 mph - N/A   Clear
6:36 PM 71.6 °F 60.8 °F 69% 30.18 in 10.0 mi North 8.1 mph - N/A   Clear
6:55 PM 71.6 °F 60.8 °F 69% 30.18 in 10.0 mi North 6.9 mph - N/A   Scattered Clouds
6:56 PM 71.6 °F 60.8 °F 69% 30.18 in 10.0 mi North 6.9 mph - N/A   Scattered Clouds
7:15 PM 71.6 °F 60.8 °F 69% 30.18 in 10.0 mi North 6.9 mph - N/A   Mostly Cloudy
7:19 PM 71.6 °F 60.8 °F 69% 30.18 in 10.0 mi NNW 5.8 mph - N/A   Mostly Cloudy
7:37 PM 71.6 °F 62.6 °F 73% 30.18 in 10.0 mi NW 3.5 mph - N/A   Mostly Cloudy
7:56 PM 71.6 °F 60.8 °F 69% 30.19 in 10.0 mi North 6.9 mph - N/A   Overcast
8:15 PM 69.8 °F 60.8 °F 73% 30.19 in 10.0 mi NNW 3.5 mph - N/A   Mostly Cloudy
8:16 PM 69.8 °F 60.8 °F 73% 30.19 in 10.0 mi NW 4.6 mph - N/A   Mostly Cloudy
8:35 PM 69.8 °F 60.8 °F 73% 30.19 in 10.0 mi NW 3.5 mph - N/A   Overcast
8:57 PM 69.8 °F 60.8 °F 73% 30.19 in 10.0 mi NW 3.5 mph - N/A   Overcast
9:16 PM 66.2 °F 60.8 °F 83% 30.19 in 10.0 mi Calm Calm - N/A   Overcast
9:35 PM 66.2 °F 60.8 °F 83% 30.19 in 10.0 mi Calm Calm - N/A   Mostly Cloudy
9:36 PM 66.2 °F 60.8 °F 83% 30.19 in 10.0 mi Calm Calm - N/A   Mostly Cloudy
9:55 PM 66.2 °F 60.8 °F 83% 30.20 in 10.0 mi NW 3.5 mph - N/A   Mostly Cloudy
9:56 PM 66.2 °F 60.8 °F 83% 30.20 in 10.0 mi NW 3.5 mph - N/A   Mostly Cloudy
10:17 PM 66.2 °F 60.8 °F 83% 30.20 in 10.0 mi NNW 4.6 mph - N/A   Scattered Clouds
10:35 PM 66.2 °F 60.8 °F 83% 30.21 in 10.0 mi North 9.2 mph - N/A   Clear
10:55 PM 66.2 °F 60.8 °F 83% 30.21 in 10.0 mi North 6.9 mph - N/A   Clear
11:15 PM 64.4 °F 59.0 °F 83% 30.21 in 10.0 mi North 5.8 mph - N/A   Clear
11:16 PM 64.4 °F 59.0 °F 83% 30.21 in 10.0 mi North 5.8 mph - N/A   Clear
11:38 PM 62.6 °F 59.0 °F 88% 30.21 in 10.0 mi NNW 4.6 mph - N/A   Clear
11:56 PM 62.6 °F 59.0 °F 88% 30.22 in 10.0 mi NW 4.6 mph - N/A   Clear